www.pogodaiklimat.ru

Погода и климат >> Архив погоды >> Мексика >> Пьедрас-Неграс


ПОГОДА в Пьедрас-Неграс

  • Прогноз погоды в Пьедрас-Неграс
  • Монитор погоды в Пьедрас-Неграс

АРХИВ ПОГОДЫ в Пьедрас-Неграс

Время (UTC), дата Ветер
(напр.,м/с)
 
Видим.   Явления Облачность Т
(С)
Тd
(С)
f
(%)
Тe
(С)
Тes
(С)
Комфортность P
(гПа)
Po
(гПа)
Тmin
(С)
Tmax
(С)
R
(мм)
R24
(мм)
S
(см)
03 12.09 ЮВ 2 1000 м 3/3 300 м
[Frnb]
+31.2 +19.5 50 +37 +37 очень
душно
1015.2 987.5
06 12.09 ЮВ 1 1000 м ясно +27.0 +21.4 71 +34 +34 очень
душно
1015.6 987.9 +38.0
09 12.09 В 1 1000 м ясно +25.0 +21.0 78 +31 +31 очень
душно
1014.3 986.4
12 12.09 В 1 1000 м ясно +24.0 +20.9 83 +30 +30 очень
душно
1015.3 987.1 +23.0 +38.0
15 12.09 В 3 5000 м 4/4 500 м
[Sc diur, vesp]
+27.6 +22.0 72 +36 +39 очень
душно
1018.3 989.8
18 12.09 ЮВ 3 5000 м 5/5 500 м
[Sc diur, vesp]
+33.0 +20.7 48 +40 +47 очень
душно
1018.2 989.8 +23.0 +34.0
21 12.09 ЮВ 1 5000 м 6/6 500 м
[Cu med, cong]
+36.6 +17.6 33 +40 +46 очень
душно
1014.7 986.7
00 13.09 Ю 1 4000 м 8/8 500 м
[Cu med, cong]
+35.0 +18.1 37 +39 +39 очень
душно
1013.4 985.7 +23.0 +37.6
03 13.09 ЮВ 1 1000 м ясно +29.0 +20.2 59 +35 +35 очень
душно
1015.5 987.8
06 13.09 ЮВ 1 1000 м ясно +26.6 +20.7 70 +33 +33 очень
душно
1015.8 988.0 +37.6
12 13.09 В 3 1000 м 10/10 500 м
[Sc diur, vesp]
+25.4 +22.6 85 +33 +33 очень
душно
1018.5 990.1 +24.0 +37.6
15 13.09 В 3 5000 м 10/10 500 м
[Sc diur, vesp]
+27.2 +23.9 82 +37 +37 очень
душно
1019.9 991.4
18 13.09 В 3 5000 м 6/6 500 м
[Sc diur, vesp]
+32.8 +21.1 50 +40 +46 очень
душно
1019.7 991.3 +24.0 +33.6
21 13.09 ЮВ 1 5000 м 8/8 480 м
[Sc diur, vesp]
+36.2 +18.9 36 +41 +43 опасность
перегрева
1017.0 988.9
03 14.09 В 3 1000 м 5/5 480 м
[Sc diur, vesp]
+31.2 +17.1 43 +35 +35 очень
душно
1017.1 989.4
12 14.09 СВ 2 1000 м ясно +24.8 +20.2 76 +31 +31 очень
душно
1019.7 991.5 +23.0 +37.4
15 14.09 ЮВ 2 5000 м ясно +28.4 +21.4 66 +36 +42 очень
душно
1019.7 991.3
18 14.09 В 3 5000 м 6/6 500 м
[Sc diur, vesp]
+33.4 +18.5 41 +38 +44 очень
душно
1019.6 991.3 +23.0 +34.6
21 14.09 ЮВ 1 5000 м 5/5 540 м
[Cu med, cong]
+36.4 +15.4 29 +38 +45 очень
душно
1016.5 988.5
00 15.09 В 1 5000 м 4/4 540 м
[Cu med, cong]
+35.0 +15.8 32 +37 +38 очень
душно
1014.6 986.9 +23.0 +37.6
03 15.09 В 2 1000 м ясно +30.6 +16.0 41 +33 +33 душно 1017.1 989.4
06 15.09 В 2 1000 м ясно +27.8 +16.1 49 +31 +31 душно 1017.2 989.4 +23.0 +37.6
09 15.09 В 1 1000 м ясно +25.6 +18.6 65 +30 +30 душно 1017.6 989.6
12 15.09 В 1 1000 м ясно +24.2 +17.7 67 +28 +28 душно 1017.9 989.7 +23.0 +37.6
15 15.09 СВ 1 5000 м ясно +25.6 +19.9 71 +31 +38 очень
душно
1018.7 990.2
18 15.09 В 1 5000 м 4/4 500 м
[Cu med, cong]
+33.6 +17.3 38 +37 +49 очень
душно
1018.2 989.8 +23.0 +34.8
21 15.09 В 2 5000 м 6/6 500 м
[Cu med, cong]
+37.2 +17.3 31 +40 +45 очень
душно
1015.4 987.4
00 16.09 ЮВ 3 5000 м 4/4 500 м
[Cu med, cong]
+35.6 +16.5 32 +38 +38 очень
душно
1013.3 985.5 +23.0 +37.4
03 16.09 ЮВ 1 1000 м 4/3 500 м
[Cu med, cong]
+31.0 +16.5 42 +34 +34 душно 1012.8 985.3
06 16.09 В 1 1000 м 8/8 420 м
[Sc diur, vesp]
+29.0 +17.2 49 +33 +33 очень
душно
1015.2 987.5 +37.4
12 16.09 В 1 3000 м ясно +25.0 +19.8 73 +31 +31 очень
душно
1016.4 988.2 +23.8 +37.4
15 16.09 В 1 5000 м ясно +28.6 +20.4 61 +35 +42 очень
душно
1017.8 989.4
18 16.09 СВ 2 5000 м 3/3 480 м
[Cu med, cong]
+33.8 +18.3 40 +38 +50 очень
душно
1016.3 988.1 +23.8 +35.0
21 16.09 ЮВ 1 5000 м 6/6 500 м
[Cu med, cong]
+37.2 +18.1 33 +41 +47 опасность
перегрева
1012.9 985.0
00 17.09 В 1 4000 м 8/8 480 м
[Sc diur, vesp]
+34.4 +16.5 34 +37 +37 очень
душно
1012.4 984.7 +23.8 +38.8
03 17.09 ЮВ 1 1000 м ясно +31.0 +17.6 45 +35 +35 очень
душно
1012.1 984.6
06 17.09 В 1 1000 м ясно +28.8 +16.3 47 +32 +32 душно 1012.3 984.7 +38.8
09 17.09 В 2 1000 м ясно +26.8 +17.3 56 +31 +31 душно 1012.0 984.2
12 17.09 С 2 3000 м ясно +25.4 +19.3 69 +31 +31 очень
душно
1013.7 985.6 +24.2 +38.8
15 17.09 СВ 2 5000 м ясно +29.4 +18.7 53 +35 +40 очень
душно
1013.7 985.5
18 17.09 З 3 5000 м ясно +35.4 +20.3 41 +41 +55 опасность
перегрева
1014.9 986.7 +24.2 +36.2
21 17.09 ЮВ 1 5000 м 6/6 500 м
[Sc diur, vesp]
+38.8 +17.3 28 +41 +47 опасность
перегрева
1011.1 983.3
00 18.09 В 1 4000 м 4/4 500 м
[Cu med, cong]
+36.8 +16.4 30 +39 +39 очень
душно
1008.8 981.4 +24.2 +40.4
03 18.09 ЮВ 1 1000 м ясно +32.4 +17.2 40 +36 +36 очень
душно
1009.8 982.5
12 18.09 В 2 3000 м ясно +25.8 +21.0 75 +32 +32 очень
душно
1012.1 984.2 +24.6 +40.4
15 18.09 В 2 5000 м ясно +28.6 +21.6 66 +37 +42 очень
душно
1013.5 985.4
18 18.09 Ю 2 5000 м ясно +37.0 +18.5 34 +41 +58 опасность
перегрева
1013.7 985.7 +24.6 +38.0
21 18.09 ЮВ 1 5000 м 6/6 500 м
[Cu med, cong]
+39.6 +15.6 24 +41 +46 опасность
перегрева
1009.8 982.1
00 19.09 Ю 1 4000 м 6/6 500 м
[Cu med, cong]
+38.2 +15.6 26 +40 +40 очень
душно
1007.7 980.3 +24.6 +41.6

 

Местоположение метеостанции Пьедрас-Неграс (Мексика): широта 28.70 долгота -100.50 высота над уровнем моря 250 м.

В архиве по умолчанию представлена погода в Пьедрас-Неграс за последнюю неделю. Архивные данные за месяц целиком и за предыдущие месяцы, начиная с января 2011 года, Вы можете получить, выбрав интересующий диапазон дат из раскрывающегося списка и нажав кнопку "Ввод!".


*Определитесь, кто Вы:
робот инопланетянин человек

Внимание! Время в таблицах - всемирное. Для получения местного времени необходимо прибавить поправку, которая равна -7 ч.

Смотрите также архив погоды в соседних городах и на ближайших метеорологических станциях:

Погода в Монклове (Мексика) (221 км)
Погода в Монтеррее (Мексика) (331 км)
Погода в Солтильо (Мексика) (374 км)
Погода в Торреоне (Мексика) (455 км)
Погода в Чихуахуа университете (Мексика) (537 км)
Погода в Паррале (Мексика) (539 км)
Погода в Чихуахуа (Мексика) (544 км)
Погода в Сьюдад-Виктории (Мексика) (569 км)
Погода в Сото ла Марина (Мексика) (594 км)
Погода в Тепеуанесе (Мексика) (638 км)

Пояснения к столбцам:

Ветер - указаны скорость ветра в м/с - средняя за 10 мин, порывы в срок и между сроками (в фигурных скобках) и направление, откуда дует ветер: С - северный, СВ - северо-восточный, В - восточный, ЮВ - юго-восточный, Ю - южный, ЮЗ - юго-западный, З - западный, СЗ - северо-западный.
Видимость - горизонтальная дальность видимости в метрах или километрах. При видимости от 1 до 10 км при отсутствии осадков обычно наблюдается дымка, при ухудшении видимости до 1 км и менее - туман. В сухую погоду видимость может ухудшаться дымом, пылью или мглою.
Явления - указаны атмосферные явления, наблюдавшиеся в срок или в последний час перед сроком; фигурными скобками обозначены явления, наблюдавшиеся между сроками (за 1-3 часа до срока); квадратными скобками обозначены град или гололедные отложения с указанием их диаметра в мм.
Облачность - указаны через наклонную черту общая и нижняя облачность в баллах и высота нижней границы облаков в метрах; квадратными скобками обозначены формы облаков: Ci - перистые, Cs - перисто-слоистые, Cc - перисто-кучевые, Ac - высококучевые, As - высокослоистые, Sc - слоисто-кучевые, Ns - слоисто-дождевые, Cu - кучевые, Cb - кучево-дождевые. Подробнее классификацию облаков см. в Атласе облаков (PDF).
T - Температура воздуха - температура, измеренная на высоте 2 м над землей.
Td - Температура точки росы - температура, при понижении до которой содержащийся в воздухе водяной пар достигнет насыщения.
f - Относительная влажность воздуха - влажноcть воздуха, измеренная на высоте 2 м над землей.
Te - Эффективная температура - температура, которую ощущает одетый по сезону человек в тени. Характеристика душности погоды. При расчете учитывается влияние влажности воздуха и скорости ветра на теплоощущения человека.
Tes - Эффективная температура на солнце - температура, которую ощущает человек, с поправкой на солнечный нагрев. Характеристика знойности погоды. Зависит от высоты солнца над горизонтом, облачности и скорости ветра. Ночью, в пасмурную погоду, а также при ветре 12 м/с и более поправка равна нулю.
P - Атмосферное давление - приведенное к уровню моря атмосферное давление.
Po - Атмосферное давление - измеренное на уровне метеостанции атмосферное давление.
Tmin - Минимальная температура - минимум температуры воздуха на высоте 2 м над землей.
Tmax - Максимальная температура - максимум температуры воздуха на высоте 2 м над землей.
R - Количество осадков - Количество выпавших осадков за период времени, мм. При наведении курсора мыши на число - период времени, за который выпало указанное количество осадков.
R24 - Количество осадков - Количество выпавших осадков за 24 часа, мм.
S - Снежный покров - Высота снежного покрова, см. При наведении курсора мыши на число - состояние снежного покрова и степень покрытия местности в баллах.